Hourly Data Report for October 19, 2013

All times are specified in Local Standard Time (LST). Add 1 hour to adjust for Daylight Saving Time where and when it is observed.

ARVIAT A
NUNAVUT

61°05'38.000" N
94°04'18.000" W
10.40 m
2300427
71174
YEK

Download Data

Hourly Data (October 2013)
Hourly Data Report for October 19, 2013
Temp Definition
°C
Dew Point Temp Definition
°C
Rel Hum Definition
%
Wind Dir Definition
10's deg

Wind Spd Definition
km/h
Visibility Definition
km
Stn Press Definition
kPa
Hmdx Definition


Wind Chill Definition


Weather Definition


TIME
00:00 Legend Double Dagger -7.2 -7.6 97 24 15 16.1 100.70   -13 LegendNANA
01:00 Legend Double Dagger -7.1 -7.4 98 25 11 16.1 100.70   -12 LegendNANA
02:00 Legend Double Dagger -7.2 -7.7 96 23 13 16.1 100.71   -13 LegendNANA
03:00 Legend Double Dagger -6.1 -6.6 97 24 13 16.1 100.71   -11 LegendNANA
04:00 Legend Double Dagger -5.9 -6.3 97 23 13 16.1 100.72   -11 LegendNANA
05:00 Legend Double Dagger -5.9 -6.3 97 23 11 16.1 100.72   -11 LegendNANA
06:00 Legend Double Dagger -5.7 -6.1 97 23 11 16.1 100.73   -10 LegendNANA
07:00 Legend Double Dagger -5.8 -6.1 98 23 11 16.1 100.75   -11 LegendNANA
08:00 Legend Double Dagger -6.0 -6.3 98 24 9 16.1 100.78   -10 LegendNANA
09:00 Legend Double Dagger -6.3 -6.6 98 25 8 16.1 100.80   -10 LegendNANA
10:00 Legend Double Dagger -5.7 -6.1 97 30 5 16.1 100.82   -8 LegendNANA
11:00 Legend Double Dagger -5.5 -6.1 95 33 9 16.1 100.84   -10 LegendNANA
12:00 Legend Double Dagger -5.5 -6.0 96 34 9 16.1 100.87   -10 LegendNANA
13:00 Legend Double Dagger -4.3 -4.6 98 35 11 2.8 100.89   -9 LegendNANA
14:00 Legend Double Dagger -5.4 -5.5 99 33 11 1.2 100.92   -10 LegendNANA
15:00 Legend Double Dagger -5.8 -5.9 99 34 13 8.1 100.95   -11 LegendNANA
16:00 Legend Double Dagger -5.7 -6.1 97 33 11 16.1 100.99   -10 LegendNANA
17:00 Legend Double Dagger -6.5 -6.8 98 33 13 16.1 101.03   -12 LegendNANA
18:00 Legend Double Dagger -7.2 -7.5 98 32 15 16.1 101.07   -13 LegendNANA
19:00 Legend Double Dagger -8.6 -8.9 98 34 18 16.1 101.11   -16 LegendNANA
20:00 Legend Double Dagger -9.0 -9.5 96 33 15 16.1 101.12   -16 LegendNANA
21:00 Legend Double Dagger -9.1 -9.8 95 33 17 16.1 101.13   -16 LegendNANA
22:00 Legend Double Dagger -9.9 -10.4 96 33 18 16.1 101.14   -17 LegendNANA
23:00 Legend Double Dagger -9.4 -9.8 97 33 21 16.1 101.14   -17 LegendNANA

Notes on Data Quality.

Legend

  • E = Estimated
  • M = Missing
  • NA = Not Available
  • ‡ = Partner data that is not subject to review by the National Climate Archives
Date modified: